[[{"header":{"parameterUnit":"m.s-1","parameterCategory":1,"la1":30.2991,"la2":30.254,"lo1":-89.0895,"lo2":-89.0444,"dy":0.0017,"dx":0.0017,"nx":28,"ny":28,"refTime":"2025-07-30T03:00:00:Z","depth":0,"parameterNumber":2,"parameterNumberName":"U-component_of_WINDS"},"data":[0,0,0,0,0,0,0,0,0,0,0,0,0,0,0,0,0,0,0,0,0,0,0,0,0,0,0,0,0,0,0,0,0,0,0,0,0,0,0,0,0,0,0,0,0,0,0,0,0,0,0,0,0,0,0,0,0,0,2.0606,2.0607,0,2.0711,2.0713,2.0714,2.076,2.076,2.076,2.076,2.0864,2.0867,2.087,0,0,0,0,0,0,0,0,0,0,0,0,0,2.044,2.0443,2.0605,2.0607,2.0608,2.0711,2.0713,2.0714,2.076,2.076,2.076,2.076,2.0863,2.0867,2.087,0,0,0,0,0,0,0,0,0,0,0,0,0,2.0525,2.0444,2.0605,2.0644,2.0648,2.0711,2.0713,2.0714,2.076,2.076,2.076,2.076,2.0862,2.0867,2.0871,2.0902,0,0,2.0884,2.0886,0,0,0,0,0,0,0,0,2.052,2.0531,2.0637,2.0641,2.0646,2.0722,2.0693,2.0777,2.076,2.0717,2.076,2.0759,2.0817,2.0825,2.0845,2.0907,2.0912,2.0885,2.0887,2.0889,2.089,0,0,0,0,0,0,0,2.0515,2.0527,2.0647,2.0638,2.0644,2.0655,2.0666,2.0709,2.0767,2.0721,2.0725,2.0737,2.082,2.0841,2.0848,2.0913,2.0885,2.0888,2.0891,2.0893,2.1007,2.1007,0,0,0,0,0,0,2.0503,2.0522,2.0644,2.065,2.0582,2.0658,2.0671,2.0698,2.0767,2.0777,2.0737,2.0739,2.0834,2.0843,2.0852,2.0894,2.0889,2.0893,2.0896,2.1007,2.1007,2.1007,0,0,0,0,0,0,2.0499,2.0513,2.064,2.0587,2.0604,2.0661,2.0691,2.07,2.0722,2.0779,2.0789,2.0748,2.0834,2.0846,2.089,2.0898,2.0895,2.0899,2.1006,2.1007,2.1007,2.0977,0,0,0,0,0,0,2.0494,2.0512,2.0525,2.0587,2.0607,2.0676,2.0691,2.0703,2.073,2.0733,2.0792,2.0802,2.0835,2.0883,2.0894,2.0904,2.0903,2.1006,2.1006,2.1007,2.0978,2.0977,2.0976,0,0,0,0,0,2.0488,2.0511,2.0525,2.054,2.0625,2.0677,2.0688,2.0726,2.073,2.0743,2.078,2.08,2.0896,2.0887,2.09,2.0911,2.1005,2.1006,2.1007,2.0978,2.0977,2.0976,0,0,0,0,0,0,2.0446,2.052,2.0536,2.0581,2.0622,2.0685,2.0702,2.0724,2.0764,2.0765,2.081,2.0823,2.0863,2.0892,2.0881,2.0946,2.0952,2.0956,2.0926,2.0925,2.0924,2.0916,2.0906,0,0,0,0,0,2.0442,2.048,2.0542,2.0575,2.0595,2.0645,2.0669,2.0695,2.074,2.0757,2.0797,2.0839,2.0878,2.0903,2.0943,2.0982,2.0996,2.0997,2.0996,2.0995,2.0997,2.1021,2.1022,2.101,2.101,2.101,0,0,2.0434,2.0479,2.05,2.0568,2.0603,2.064,2.0659,2.0697,2.0725,2.0763,2.0807,2.0838,2.0887,2.0929,2.095,2.0954,2.1003,2.0996,2.0994,2.0998,2.1022,2.1023,2.1024,2.1011,2.1011,2.1011,0,0,2.0439,2.0477,2.0509,2.0544,2.0598,2.0632,2.0639,2.0699,2.0721,2.0767,2.0796,2.0829,2.0896,2.0931,2.0957,2.0975,2.0995,2.0987,2.0982,2.1005,2.1005,2.1006,2.1013,2.1015,2.0989,2.0989,2.0989,0,2.0421,2.048,2.0522,2.0559,2.0588,2.0626,2.0658,2.069,2.0753,2.0772,2.0777,2.0862,2.0898,2.0949,2.0954,2.0974,2.0983,2.098,2.1002,2.1004,2.1005,2.1012,2.1015,2.0988,2.0988,2.0988,2.0988,0,2.0456,2.0496,2.0515,2.0578,2.0609,2.0643,2.069,2.0716,2.0739,2.0772,2.0818,2.0863,2.0912,2.0926,2.0949,2.0981,2.0982,2.0994,2.1001,2.1004,2.1012,2.1015,2.0986,2.0986,2.0987,2.0987,0,0,2.0436,2.0523,2.0529,2.0558,2.0621,2.0652,2.0688,2.0738,2.076,2.0803,2.0834,2.089,2.0902,2.0932,2.0959,2.0978,2.0991,2.0988,2.099,2.0987,2.1029,2.102,2.1022,2.1005,2.1005,2.1006,2.1025,0,2.0449,2.0517,2.0557,2.0608,2.0645,2.0682,2.0714,2.0755,2.0787,2.0822,2.0857,2.0896,2.0909,2.0927,2.0948,2.0985,2.1,2.0984,2.1033,2.1035,2.102,2.1026,2.1016,2.1032,2.1028,2.1029,2.1029,0,2.0473,2.0517,2.0573,2.0633,2.065,2.0678,2.0727,2.0761,2.0809,2.083,2.0864,2.0892,2.093,2.0935,2.0989,2.0977,2.1,2.1021,2.1022,2.1028,2.1032,2.1032,2.1038,2.104,2.1034,2.1033,2.1033,0,2.0454,2.0526,2.057,2.0593,2.0664,2.0683,2.0713,2.0761,2.0789,2.0831,2.085,2.0896,2.0921,2.0956,2.0995,2.0994,2.1045,2.1052,2.1064,2.1063,2.1072,2.1071,2.1082,2.1087,2.1087,2.1087,2.1087,0,2.0464,2.0497,2.0562,2.0588,2.0626,2.0671,2.0706,2.0739,2.0781,2.0814,2.0848,2.0878,2.0928,2.0963,2.0994,2.1034,2.1045,2.1063,2.1071,2.1061,2.1058,2.1076,2.1076,2.1088,2.1087,2.1087,2.1087,0,2.0448,2.0493,2.0543,2.0607,2.0623,2.0648,2.0702,2.0729,2.0763,2.0804,2.0816,2.0868,2.0912,2.0955,2.1013,2.1034,2.1074,2.1084,2.1058,2.1063,2.1072,2.107,2.1094,2.1099,2.11,2.11,2.11,0,2.0452,2.0478,2.0545,2.0571,2.0601,2.0641,2.067,2.0715,2.0744,2.0801,2.082,2.0867,2.0907,2.0976,2.1018,2.1063,2.1075,2.108,2.1082,2.1071,2.1075,2.1073,2.1076,2.1079,2.1079,2.1079,2.1078,0,2.0454,2.0475,2.0517,2.0567,2.0601,2.0642,2.0683,2.0702,2.0755,2.0785,2.0832,2.0863,2.0923,2.0969,2.1019,2.1049,2.1073,2.1078,2.1083,2.1072,2.1056,2.1065,2.1055,2.1077,2.1077,2.1077,2.1077,2.1077,2.0448,2.0474,2.0525,2.0571,2.0607,2.0646,2.0675,2.0713,2.0753,2.0807,2.0831,2.0877,2.0925,2.0995,2.1025,2.1061,2.1067,2.1074,2.1076,2.1077,2.1075,2.105,2.1071,2.1071,2.1071,2.1071,2.1071,0,2.0452,2.0488,2.0529,2.0588,2.0623,2.0644,2.0691,2.0719,2.076,2.0803,2.0843,2.0896,2.0941,2.0988,2.1035,2.1056,2.1067,2.1067,2.1065,2.1072,2.1067,2.1058,2.1056,2.1056,2.1056,2.1056,2.1056,2.1056,2.0458,2.0503,2.053,2.0593,2.0628,2.0675,2.0701,2.0736,2.0771,2.083,2.0868,2.0899,2.0944,2.0995,2.1037,2.105,2.1066,2.1062,2.1077,2.1071,2.1072,2.1073,2.1065,2.1065,2.1065,2.1079,2.1079,2.1079]},{"header":{"parameterUnit":"m.s-1","parameterCategory":1,"la1":30.2991,"la2":30.254,"lo1":-89.0895,"lo2":-89.0444,"dy":0.0017,"dx":0.0017,"nx":28,"ny":28,"refTime":"2025-07-30T03:00:00:Z","depth":0,"parameterNumber":3,"parameterNumberName":"V-component_of_WINDS"},"data":[0,0,0,0,0,0,0,0,0,0,0,0,0,0,0,0,0,0,0,0,0,0,0,0,0,0,0,0,0,0,0,0,0,0,0,0,0,0,0,0,0,0,0,0,0,0,0,0,0,0,0,0,0,0,0,0,0,0,3.9272,3.9273,0,3.9414,3.9416,3.9417,3.9443,3.9442,3.944,3.9439,3.9577,3.9582,3.9587,0,0,0,0,0,0,0,0,0,0,0,0,0,3.9013,3.9018,3.9271,3.9273,3.9275,3.9414,3.9416,3.9418,3.9443,3.9442,3.944,3.9439,3.9576,3.9581,3.9587,0,0,0,0,0,0,0,0,0,0,0,0,0,3.9137,3.9019,3.9271,3.9305,3.9309,3.9413,3.9416,3.9418,3.9443,3.9441,3.944,3.9438,3.9574,3.9581,3.9588,3.9667,0,0,3.961,3.9613,0,0,0,0,0,0,0,0,3.913,3.9146,3.9298,3.9302,3.9308,3.9409,3.9375,3.9501,3.9444,3.9392,3.9439,3.9437,3.9522,3.9533,3.9564,3.9673,3.9679,3.961,3.9615,3.9618,3.962,0,0,0,0,0,0,0,3.9121,3.914,3.9328,3.93,3.9306,3.931,3.9325,3.9399,3.9465,3.9396,3.9399,3.9416,3.9524,3.9557,3.9567,3.9681,3.961,3.9616,3.9621,3.9624,3.9861,3.9863,0,0,0,0,0,0,3.9108,3.9133,3.9323,3.9332,3.9213,3.9316,3.9333,3.9378,3.9464,3.9476,3.9417,3.9416,3.9546,3.9559,3.9572,3.967,3.9618,3.9624,3.9628,3.9859,3.9862,3.9864,0,0,0,0,0,0,3.9102,3.9125,3.9317,3.9233,3.9258,3.9322,3.9372,3.9382,3.9414,3.948,3.9491,3.9439,3.9545,3.9562,3.9643,3.9675,3.9627,3.9634,3.9857,3.986,3.9863,3.9866,0,0,0,0,0,0,3.9095,3.9122,3.9155,3.9234,3.9263,3.9389,3.9374,3.9386,3.9428,3.9428,3.9503,3.9514,3.9545,3.9633,3.965,3.9684,3.964,3.9854,3.9858,3.9862,3.9864,3.9869,3.9874,0,0,0,0,0,3.9085,3.9149,3.9157,3.9179,3.9305,3.9391,3.9407,3.9443,3.943,3.9462,3.9504,3.9511,3.9669,3.9641,3.9661,3.9697,3.9852,3.9857,3.9861,3.9861,3.9868,3.9874,0,0,0,0,0,0,3.9069,3.916,3.9169,3.9261,3.9318,3.9395,3.9436,3.9449,3.951,3.9507,3.9548,3.9564,3.9643,3.9678,3.9645,3.9778,3.9759,3.9768,3.9752,3.9759,3.9764,3.9754,3.9645,0,0,0,0,0,3.9077,3.9141,3.9216,3.9289,3.9317,3.9372,3.941,3.9434,3.9494,3.9517,3.9565,3.9621,3.9683,3.9723,3.9783,3.9869,3.9885,3.9903,3.9908,3.9912,3.9919,3.9967,3.9976,3.9879,3.9879,3.9879,0,0,3.9092,3.9149,3.9187,3.9287,3.9334,3.9398,3.9392,3.9459,3.9506,3.9527,3.9608,3.9644,3.9709,3.9792,3.9831,3.9824,3.995,3.9918,3.9921,3.9926,3.9972,3.9981,3.9989,3.9882,3.9881,3.9881,0,0,3.9152,3.9203,3.927,3.9317,3.939,3.9426,3.9442,3.9517,3.9543,3.9625,3.9642,3.9696,3.9802,3.9848,3.9885,3.9962,3.9971,3.998,4.0007,4.0052,4.006,4.0067,4.0094,4.0104,3.9987,3.9987,3.9987,0,3.9161,3.9261,3.9301,3.9369,3.9412,3.9436,3.9502,3.9545,3.9633,3.9661,3.9651,3.9786,3.983,3.9925,3.9944,3.9973,3.9991,3.9972,4.0056,4.0063,4.007,4.0097,4.0107,3.9988,3.9988,3.9988,3.9988,0,3.9268,3.9336,3.9381,3.9468,3.9516,3.9582,3.963,3.9673,3.9692,3.9728,3.981,3.9865,3.9937,3.9961,3.9979,4.0058,4.0051,4.0048,4.0031,4.008,4.0105,4.0116,3.9989,3.9989,3.9988,3.9988,0,0,3.9323,3.9432,3.9448,3.9488,3.9569,3.9621,3.9687,3.9761,3.9797,3.9855,3.9911,4.0,3.9999,4.0041,4.0064,4.0103,4.0161,4.0096,4.0098,4.0106,4.025,4.0252,4.0264,4.0167,4.0169,4.0171,4.0245,0,3.9393,3.9517,3.9555,3.9656,3.9719,3.9742,3.98,3.9855,3.989,3.9946,3.9983,4.0046,4.0039,4.0065,4.0105,4.0145,4.019,4.014,4.0217,4.022,4.0201,4.0277,4.028,4.0347,4.0255,4.0257,4.0258,0,3.9493,3.9556,3.9665,3.9739,3.9767,3.9818,3.9888,3.9943,4.0004,4.0026,4.0073,4.0093,4.0161,4.0139,4.0232,4.0197,4.0231,4.0255,4.0258,4.0267,4.0242,4.0288,4.037,4.038,4.0274,4.0273,4.0272,0,3.9522,3.9634,3.9714,3.9747,3.9835,3.9871,3.9908,3.9969,4.001,4.007,4.0097,4.0163,4.0199,4.0249,4.0285,4.0266,4.0374,4.0356,4.0393,4.0393,4.0416,4.0414,4.0504,4.0436,4.0436,4.0436,4.0436,0,3.9597,3.9663,3.9729,3.9778,3.9851,3.9893,3.9964,4.0002,4.0055,4.011,4.0133,4.0183,4.0228,4.0284,4.0312,4.0384,4.04,4.0419,4.0426,4.0417,4.0415,4.044,4.0437,4.0439,4.0438,4.0438,4.0437,0,3.9643,3.969,3.9779,3.9855,3.9876,3.9926,3.999,4.0038,4.0073,4.0143,4.0161,4.0216,4.0283,4.0324,4.0408,4.0427,4.0507,4.0511,4.0487,4.049,4.0526,4.0522,4.0636,4.0653,4.0573,4.0574,4.0574,0,3.9688,3.9739,3.9822,3.9862,3.9901,3.9964,4.0008,4.0049,4.0093,4.0167,4.0205,4.0274,4.0331,4.0436,4.0482,4.0546,4.0553,4.0588,4.0562,4.0552,4.0554,4.0551,4.0556,4.0592,4.0593,4.0594,4.0594,0,3.9763,3.9784,3.9847,3.9918,3.997,4.0027,4.0084,4.0114,4.0165,4.0212,4.0283,4.0328,4.0414,4.0482,4.055,4.0586,4.0598,4.0602,4.0614,4.0607,4.0591,4.06,4.0499,4.0599,4.0599,4.0598,4.0598,4.0598,3.981,3.9857,3.9923,3.9992,4.004,4.0093,4.0141,4.0184,4.0244,4.032,4.034,4.0413,4.0472,4.0565,4.0602,4.0658,4.0653,4.067,4.0675,4.0679,4.068,4.0581,4.067,4.067,4.067,4.067,4.067,0,3.9887,3.9931,3.9994,4.0075,4.0128,4.0138,4.0201,4.0244,4.031,4.0365,4.0422,4.0501,4.0567,4.0618,4.0685,4.072,4.0727,4.0736,4.0734,4.0742,4.0681,4.0664,4.0729,4.0729,4.0729,4.0729,4.0729,4.0729,3.9934,4.0014,4.0042,4.0145,4.0188,4.0262,4.0298,4.0345,4.039,4.0479,4.0535,4.0569,4.0622,4.0692,4.0752,4.0765,4.0789,4.0797,4.0811,4.0753,4.0746,4.074,4.0725,4.0801,4.0801,4.0868,4.0868,4.0869]}]]